CAPE
0 0 0 0 0 0 1 0 0 0 0 0 0 0 167 256 56 353 356 414 367 246 68 571 654 429 79 0 0 0 0 0 0 0 0 0 0 0 0 2 2 13 4 9
0 0 0 0 0 0 0 0 0 0 0 0 0 1 498 371 159 267 49 118 368 418 467 640 792 357 24 5 0 0 0 0 0 0 0 0 0 0 2 3 1 9 6 4
0 0 0 0 0 0 0 0 0 0 0 0 97 493 380 616 668 430 301 214 356 481 814 791 998 178 4 0 0 0 0 0 0 0 0 0 0 1 1 3 6 6 10 13
0 0 0 0 0 0 0 0 1 0 20 698 762 512 817 484 411 434 372 286 290 392 1182 874 446 310 64 0 0 0 0 0 0 0 0 0 0 0 0 6 9 20 8 9
0 0 0 0 0 0 0 0 2 815 971 821 681 484 612 67 100 291 429 480 411 173 531 845 709 370 6 2 0 0 0 0 0 0 0 0 0 0 4 6 16 9 16 11
0 0 0 0 0 189 305 13 903 832 665 351 271 273 283 12 3 173 288 423 672 267 485 732 412 369 1 0 0 0 0 0 0 0 0 0 0 0 4 5 5 12 4 0
0 0 0 0 0 213 6 75 198 122 44 26 72 68 15 0 1 180 286 481 585 386 744 531 1089 481 35 0 0 0 0 0 0 0 0 2 2 3 9 4 18 0 1 12
1 0 0 145 81 58 327 43 0 0 0 0 0 0 0 0 0 51 326 351 675 382 678 577 881 537 246 5 0 0 0 0 0 0 3 1 0 0 8 9 0 0 1 9
38 0 88 61 68 444 187 177 7 0 0 0 0 0 0 0 0 0 215 419 539 417 408 487 625 702 364 40 0 0 0 0 0 0 8 0 0 3 6 0 0 0 15 24
22 0 37 111 74 137 0 0 0 0 0 0 0 0 0 0 0 0 16 277 285 331 352 441 440 465 176 2 0 0 0 0 0 1 0 0 2 3 0 0 0 20 22 29
0 0 0 53 7 2 50 5 0 0 0 0 0 0 0 0 0 0 0 341 244 171 272 282 193 193 77 0 0 0 0 1 0 0 0 2 2 0 1 0 0 12 6 2
0 0 2 0 0 0 0 0 0 0 0 0 0 0 0 0 0 0 0 273 378 0 0 90 45 61 29 0 0 0 0 0 0 0 3 0 0 0 0 0 0 0 0 0
0 0 0 0 0 0 0 0 0 0 0 0 0 0 0 0 0 0 0 0 359 81 0 0 8 22 28 1 0 2 0 0 0 0 3 0 0 0 0 0 0 0 0 0
0 0 0 0 0 0 0 0 0 0 0 0 0 0 0 0 0 0 0 7 219 108 0 0 5 3 0 0 0 0 0 0 0 0 1 0 6 0 0 0 0 0 0 0
0 0 0 0 0 0 0 0 0 0 0 0 0 0 0 0 0 0 2 2 190 177 3 0 7 20 2 0 0 0 3 0 0 0 0 0 6 6 0 0 0 0 0 0
22 29 15 12 13 13 11 3 0 0 0 0 0 0 0 0 0 0 0 0 189 90 0 1 14 16 1 2 1 0 0 0 0 0 0 0 27 18 25 9 5 3 0 0
0 0 63 47 28 28 4 31 14 0 0 0 2 0 0 0 0 0 0 0 132 29 0 0 30 4 11 24 21 0 0 0 0 0 0 4 19 8 23 12 1 0 0 0
41 45 38 100 213 126 59 72 26 8 7 9 8 11 20 27 1 0 0 19 65 36 1 0 58 12 26 3 0 0 0 0 0 6 0 11 7 6 2 2 1 4 0 0
64 18 0 10 31 67 311 275 177 116 86 13 10 6 12 72 12 0 9 32 9 22 4 11 0 3 0 0 0 0 0 0 0 0 2 1 3 5 0 1 0 0 0 0
57 42 53 3 61 114 183 199 167 99 53 54 61 52 99 37 4 12 37 10 0 12 23 3 0 0 0 0 0 0 0 0 2 0 4 3 0 0 0 0 0 0 0 0
0 0 27 30 28 57 107 151 108 23 3 16 25 30 33 41 77 17 4 3 0 7 0 0 4 9 6 0 0 0 0 3 1 0 0 1 0 0 0 0 0 0 0 0
26 9 11 26 5 2 4 5 0 9 9 26 26 96 14 1 0 2 4 0 1 0 2 2 21 8 0 0 0 0 7 0 0 0 1 1 0 0 0 0 0 0 0 0
27 26 18 9 3 1 1 2 1 5 19 45 63 0 1 2 8 1 1 0 0 0 0 3 0 0 0 0 2 0 0 1 8 4 0 0 0 0 0 0 0 0 0 0
13 5 5 2 2 0 2 0 1 37 34 35 14 1 0 0 1 1 0 0 4 1 0 0 0 0 0 0 0 0 3 2 0 0 0 0 0 0 0 0 0 0 0 0
4 3 3 3 2 2 15 1 25 45 65 18 1 1 0 0 0 9 5 0 0 7 0 0 0 0 0 0 0 0 0 0 0 0 0 0 0 0 0 0 0 0 0 0
2 3 3 2 6 1 17 41 41 68 17 3 7 1 0 4 14 23 7 1 0 0 0 0 0 0 0 0 0 0 0 0 0 0 0 0 0 0 0 0 0 0 0 0
3 1 2 2 2 0 38 102 56 18 6 15 22 19 5 1 12 12 3 1 0 0 0 0 0 0 0 0 0 0 0 0 0 0 0 0 0 0 0 0 0 0 0 0
CIN
-0 -0 -0 -0 -0 -0 -1 -0 -0 -0 -0 -0 -0 -0 -6 -72 -136 -87 -41 -106 -115 -50 -61 -105 -125 -131 -290 -0 -2 -0 -0 -0 -0 -0 -0 -0 -0 -0 -0 -0 -0 -1 -1 -1
-0 -0 -0 -0 -0 -0 -0 -0 -0 -0 -0 -0 -0 -0 -27 -46 -136 -60 -189 -125 -138 -48 -73 -6 -71 -203 -315 -338 -1 -0 -0 -0 -0 -0 -0 -0 -0 -0 -1 -1 -0 -2 -1 -1
-0 -0 -0 -0 -0 -0 -0 -0 -0 -0 -0 -0 -8 -37 -53 -97 -84 -115 -177 -201 -134 -109 -40 -14 -43 -264 -98 -0 -0 -0 -0 -0 -0 -0 -0 -0 -0 -1 -0 -1 -1 -1 -1 -0
-0 -0 -0 -0 -0 -0 -0 -0 -29 -0 -7 -18 -39 -60 -85 -137 -100 -85 -104 -162 -173 -109 -12 -6 -40 -128 -268 -119 -0 -0 -0 -0 -0 -0 -0 -0 -0 -0 -0 -3 -2 -1 -1 -1
-0 -0 -0 -0 -0 -0 -0 -0 -8 -15 -21 -48 -83 -124 -91 -292 -201 -96 -54 -34 -126 -209 -137 -17 -33 -179 -321 -206 -0 -0 -0 -0 -0 -0 -0 -0 -0 -0 -6 -6 -4 -1 -1 -1
-0 -0 -0 -0 -0 -21 -42 -2 -31 -12 -48 -153 -190 -70 -39 -380 -340 -180 -108 -67 -25 -178 -145 -40 -27 -100 -28 -0 -0 -0 -0 -0 -0 -0 -0 -0 -0 -3 -7 -11 -5 -0 -2 -0
-0 -0 -0 -0 -0 -30 -29 -49 -37 -153 -162 -180 -247 -258 -333 -0 -74 -186 -103 -47 -50 -101 -78 -102 -9 -80 -314 -0 -0 -0 -0 -0 -0 -0 -0 -4 -7 -12 -13 -10 -2 -0 -0 -1
-7 -0 -0 -19 -11 -9 -22 -99 -54 -0 -0 -0 -0 -0 -0 -0 -0 -284 -91 -61 -20 -62 -58 -83 -9 -108 -186 -302 -0 -0 -0 -0 -0 -0 -2 -2 -4 -6 -8 -4 -0 -0 -4 -22
-17 -1 -55 -46 -50 -18 -17 -11 -98 -0 -0 -0 -0 -0 -0 -0 -0 -0 -94 -17 -6 -19 -39 -50 -40 -14 -104 -225 -0 -0 -0 -0 -0 -0 -2 -0 -0 -8 -3 -0 -0 -0 -6 -19
-22 -0 -4 -5 -9 -53 -0 -0 -0 -0 -0 -0 -0 -0 -0 -0 -0 -0 -165 -12 -7 -23 -18 -3 -23 -16 -45 -105 -0 -0 -0 -0 -5 -5 -0 -8 -4 -4 -0 -0 -2 -9 -7 -16
-0 -0 -0 -8 -25 -10 -33 -1 -0 -0 -0 -0 -0 -0 -0 -0 -0 -0 -0 -0 -6 -10 -16 -5 -21 -6 -50 -0 -0 -0 -2 -10 -0 -3 -0 -8 -3 -0 -5 -0 -17 -15 -41 -30
-0 -0 -4 -0 -0 -0 -0 -0 -0 -0 -0 -0 -0 -0 -0 -0 -0 -0 -0 -0 -2 -0 -0 -27 -27 -26 -40 -37 -0 -0 -0 -0 -0 -0 -4 -0 -0 -0 -0 -0 -0 -0 -0 -0
-0 -0 -0 -0 -0 -0 -0 -0 -0 -0 -0 -0 -0 -0 -0 -0 -0 -0 -0 -0 -1 -7 -0 -0 -73 -88 -31 -0 -0 -50 -0 -0 -0 -0 -1 -0 -0 -0 -0 -0 -0 -0 -0 -0
-0 -0 -0 -0 -0 -0 -0 -0 -0 -0 -0 -0 -0 -0 -0 -0 -0 -0 -0 -2 -1 -0 -0 -0 -1 -0 -0 -0 -0 -0 -0 -0 -0 -0 -1 -0 -2 -0 -0 -0 -0 -0 -0 -0
-0 -1 -1 -0 -0 -0 -0 -0 -0 -0 -0 -0 -0 -0 -0 -0 -0 -0 -3 -2 -1 -0 -11 -0 -11 -0 -0 -0 -0 -0 -45 -0 -0 -0 -0 -0 -5 -12 -0 -0 -0 -0 -0 -0
-4 -3 -11 -16 -11 -1 -2 -6 -0 -0 -0 -0 -0 -0 -0 -0 -0 -0 -0 -0 -0 -7 -1 -0 -0 -1 -0 -2 -24 -0 -0 -0 -0 -0 -0 -1 -5 -11 -3 -25 -31 -13 -0 -0
-36 -0 -4 -1 -20 -51 -57 -0 -2 -0 -0 -0 -1 -0 -0 -0 -0 -0 -0 -0 -1 -14 -1 -0 -0 -19 -20 -10 -11 -6 -0 -0 -0 -0 -0 -4 -8 -13 -5 -8 -7 -0 -0 -0
-75 -22 -81 -53 -14 -10 -17 -11 -0 -2 -1 -2 -1 -0 -0 -23 -0 -0 -0 -8 -15 -9 -1 -7 -0 -9 -1 -6 -0 -0 -0 -0 -0 -1 -0 -3 -7 -7 -4 -11 -1 -3 -0 -0
-44 -62 -18 -34 -10 -32 -1 -3 -3 -6 -11 -36 -2 -0 -7 -5 -2 -0 -11 -24 -11 -0 -12 -30 -3 -17 -0 -0 -0 -0 -0 -0 -0 -0 -2 -7 -9 -2 -1 -2 -1 -0 -0 -0
-10 -19 -25 -19 -5 -10 -17 -1 -1 -3 -9 -0 -2 -8 -2 -3 -5 -11 -23 -11 -1 -10 -1 -0 -0 -0 -7 -0 -0 -0 -0 -0 -3 -1 -12 -13 -1 -0 -0 -0 -0 -0 -0 -0
-0 -0 -9 -3 -5 -1 -0 -6 -1 -2 -1 -3 -18 -31 -0 -3 -21 -18 -5 -24 -0 -36 -0 -45 -31 -5 -5 -0 -0 -0 -0 -7 -15 -0 -1 -10 -0 -0 -0 -0 -0 -0 -0 -0
-25 -0 -1 -0 -0 -1 -0 -1 -3 -11 -2 -15 -15 -11 -45 -26 -0 -7 -21 -0 -0 -0 -39 -14 -14 -2 -0 -0 -0 -0 -5 -0 -0 -0 -6 -10 -0 -0 -0 -0 -0 -0 -0 -0
-3 -0 -0 -0 -0 -0 -1 -0 -0 -0 -26 -32 -7 -11 -16 -0 -0 -1 -0 -0 -0 -0 -13 -6 -0 -0 -0 -0 -16 -0 -0 -10 -3 -9 -0 -0 -0 -0 -0 -0 -0 -0 -0 -0
-0 -0 -0 -0 -0 -0 -0 -1 -3 -5 -4 -18 -77 -1 -0 -0 -0 -0 -0 -0 -25 -13 -0 -0 -0 -0 -0 -0 -0 -0 -2 -11 -1 -0 -0 -0 -0 -0 -0 -0 -0 -0 -0 -0
-0 -0 -0 -0 -0 -0 -0 -1 -3 -7 -4 -27 -0 -0 -0 -0 -1 -5 -21 -0 -0 -12 -0 -0 -0 -0 -0 -0 -0 -0 -0 -0 -0 -0 -0 -0 -0 -0 -0 -0 -0 -0 -0 -0
-0 -0 -0 -0 -0 -2 -4 -3 -2 -1 -18 -8 -0 -0 -0 -23 -5 -5 -19 -10 -0 -0 -0 -0 -0 -0 -0 -0 -0 -0 -0 -0 -0 -0 -0 -0 -0 -0 -0 -0 -0 -0 -0 -0
-0 -0 -0 -0 -0 -0 -3 -6 -2 -6 -3 -0 -0 -0 -11 -18 -6 -4 -19 -20 -0 -0 -0 -0 -0 -0 -0 -0 -0 -0 -0 -0 -0 -0 -0 -0 -0 -0 -0 -0 -0 -0 -0 -0
Wind_Speed
26 34 39 39 38 30 29 29 34 38 40 36 36 35 29 31 34 36 37 37 33 23 30 12 8 8 8 7 9 9 7 4 3 4 6 7 8 10 9 9 10 9 11 11
30 29 32 38 41 40 34 33 35 36 41 33 31 30 25 30 36 34 37 36 36 35 9 5 9 10 10 7 7 6 4 4 3 2 4 6 7 9 9 9 10 10 10 11
33 31 34 34 28 31 33 32 30 31 32 29 26 22 27 30 30 35 38 39 38 35 10 15 8 9 11 8 6 5 3 2 1 3 4 5 7 8 9 9 10 10 10 11
32 32 35 29 29 31 35 32 28 28 23 18 20 22 22 26 31 34 37 39 40 37 31 16 9 6 6 4 4 4 4 3 1 1 3 4 6 7 8 9 10 9 10 10
29 29 33 36 28 29 29 28 23 23 18 19 20 21 21 29 31 33 35 38 39 43 42 22 12 7 7 4 6 4 2 4 2 1 1 2 4 6 8 9 9 9 10 9
27 30 32 35 30 29 34 27 17 19 18 19 23 26 24 31 33 35 36 38 37 40 41 36 18 8 4 4 6 8 7 4 3 2 2 3 4 6 7 9 8 9 8 9
26 30 34 31 34 23 29 27 12 14 17 19 22 25 29 31 33 33 35 37 37 37 36 42 21 9 8 7 7 3 4 5 4 0 3 2 5 7 7 7 8 9 9 9
26 30 33 26 30 29 22 17 18 17 18 21 24 27 30 32 33 34 34 35 35 35 35 35 30 18 13 12 6 5 4 5 4 1 1 3 5 7 7 8 10 9 9 8
26 28 27 26 26 26 28 26 24 23 22 25 29 30 32 33 33 33 34 33 33 35 35 34 31 18 13 15 12 9 7 5 4 3 1 4 6 6 8 8 7 7 9 12
36 33 32 27 28 29 29 37 29 23 27 29 30 32 34 35 35 36 34 33 34 35 35 32 25 21 15 12 10 9 8 7 4 3 2 5 6 7 6 7 6 6 12 16
38 37 34 28 29 30 24 31 32 31 33 34 34 36 38 38 39 39 37 34 33 34 34 31 24 20 17 15 12 10 9 5 4 2 4 6 9 9 9 13 14 14 16 17
42 39 38 39 38 37 36 37 37 37 39 38 37 40 40 41 42 42 41 35 32 32 35 31 24 22 18 12 9 9 8 6 5 4 5 5 7 11 16 15 15 16 14 15
44 45 45 47 45 45 43 45 44 45 44 44 42 41 43 45 43 42 41 37 31 30 34 32 24 19 17 12 9 11 7 6 6 6 6 5 6 6 8 13 16 16 16 16
41 45 47 45 45 43 43 43 42 44 44 43 43 43 44 44 43 41 38 36 33 27 34 33 24 18 15 13 11 11 7 7 6 6 6 6 7 8 9 10 11 12 14 15
43 43 45 47 48 49 46 47 45 45 43 43 42 43 42 43 43 41 36 35 33 30 34 35 28 19 14 13 15 11 8 6 5 5 5 8 8 9 10 10 11 13 14 14
41 41 41 43 46 45 44 43 43 43 42 43 42 41 42 42 42 41 36 36 34 32 34 37 35 17 15 15 13 11 8 11 8 6 7 9 9 10 10 11 10 12 15 22
45 43 42 35 37 41 45 44 40 41 42 43 44 44 44 43 41 40 37 36 35 32 35 37 33 22 16 14 13 11 13 10 5 8 9 9 12 13 12 13 14 16 18 21
22 21 30 44 40 35 33 44 43 42 43 43 43 43 41 40 40 40 37 37 34 34 35 33 38 26 18 19 13 10 7 6 6 7 10 10 12 12 13 14 13 14 16 19
31 32 32 22 20 30 21 40 41 40 40 39 43 43 41 43 39 37 35 34 34 38 33 36 38 23 20 16 15 13 8 7 7 9 9 13 13 13 15 14 16 18 19 18
37 34 28 10 12 24 39 40 42 43 42 42 41 40 42 38 36 34 31 32 33 31 29 24 26 24 20 13 14 12 7 10 9 11 12 12 14 15 16 18 18 18 19 20
31 30 42 26 36 37 35 37 38 39 40 42 40 40 37 34 30 29 28 30 18 11 20 22 24 23 13 14 12 10 9 6 12 12 12 14 15 15 17 18 19 19 20 20
25 25 11 21 36 37 37 38 37 38 38 37 37 32 30 32 31 27 15 10 3 16 22 22 18 15 11 8 4 6 4 8 12 14 15 16 16 16 17 18 19 19 20 21
33 30 33 34 35 34 33 35 35 35 35 34 30 26 26 25 21 8 6 7 10 17 19 19 15 12 8 6 1 7 8 13 14 14 16 17 17 17 19 19 20 21 20 21
31 30 27 27 27 28 30 31 32 32 31 27 18 15 9 9 6 11 12 14 29 29 14 16 13 8 5 2 10 7 10 12 14 16 17 18 18 20 20 20 21 20 20 22
22 23 24 25 27 28 29 29 29 26 25 13 5 8 4 10 11 10 9 10 21 17 19 15 9 4 0 6 6 6 11 12 16 17 17 19 21 22 22 22 21 21 22 23
21 22 24 26 28 29 27 29 28 26 23 20 13 6 10 10 25 13 11 10 13 17 15 10 5 3 4 5 9 11 12 17 17 18 20 21 22 22 22 22 22 22 23 24
18 20 23 26 29 31 26 30 28 21 14 10 37 36 37 38 31 13 12 14 24 19 12 6 9 18 9 13 11 12 15 15 16 19 20 22 22 22 22 22 22 23 24 24
Wind_Direction
303 296 288 291 291 303 304 306 298 295 293 303 307 310 325 319 317 315 321 315 337 325 241 183 161 167 163 149 146 148 147 138 113 72 63 58 51 42 47 52 45 45 39 35
301 303 298 294 289 292 298 300 298 298 293 306 313 317 325 324 318 317 317 318 321 334 313 296 168 165 164 164 156 145 161 153 115 80 26 26 41 39 47 42 38 38 34 30
298 302 299 293 297 296 296 297 297 295 299 311 319 332 331 329 326 317 315 314 316 318 312 215 215 188 174 163 156 155 178 169 124 64 56 31 39 38 43 39 34 34 27 27
298 300 291 297 298 298 294 293 300 298 305 318 329 336 343 339 330 322 319 314 310 313 312 289 241 219 190 192 160 175 187 198 249 318 356 33 34 40 42 36 32 32 26 28
289 289 293 293 300 300 299 292 296 298 307 314 317 321 336 333 333 328 323 317 310 304 296 304 239 209 197 187 167 197 220 210 221 203 297 45 32 40 33 30 32 28 24 29
291 291 292 299 299 300 307 280 295 299 303 308 310 306 314 323 327 327 326 318 315 305 292 293 275 233 218 229 225 244 257 231 251 294 147 109 47 39 33 29 32 26 32 35
284 286 291 297 296 314 292 300 291 311 313 313 310 311 312 316 322 326 327 323 321 311 297 287 298 301 294 247 245 228 235 240 262 174 137 75 42 36 33 30 27 29 23 30
283 284 286 307 298 294 302 304 297 309 316 312 310 310 311 314 317 321 324 325 323 317 304 294 290 282 271 254 247 238 241 230 223 269 103 38 43 38 38 33 25 28 39 37
289 286 302 308 307 305 304 299 294 297 303 305 305 305 308 310 314 317 320 324 324 319 310 299 290 277 256 259 256 246 254 234 206 178 108 68 44 36 34 28 46 47 25 27
288 284 294 294 297 301 297 297 288 291 299 301 301 302 303 304 305 308 315 319 321 317 313 305 297 280 270 253 252 234 235 216 210 211 74 72 50 38 54 55 63 39 23 17
289 292 293 288 291 295 287 291 294 299 292 298 302 300 298 297 298 302 307 313 316 315 311 306 300 286 268 256 240 218 209 187 176 178 101 64 18 26 29 21 26 34 25 27
286 290 293 290 291 294 290 289 292 293 292 297 297 295 295 294 296 297 298 309 310 312 307 305 296 281 266 250 237 226 188 163 165 137 107 68 44 30 20 30 27 24 33 32
290 291 289 286 287 286 287 285 285 285 287 289 292 292 291 290 292 294 293 300 306 305 304 303 296 281 259 236 225 215 196 182 148 134 125 107 87 50 34 30 26 31 37 34
292 293 290 287 287 287 288 286 286 286 286 287 288 288 287 288 288 292 292 299 301 300 297 304 293 271 242 219 206 180 183 169 153 130 117 112 97 82 65 55 41 43 37 34
291 290 288 287 285 283 283 284 284 284 285 285 286 285 284 285 286 288 290 296 296 292 292 299 286 262 212 195 183 196 193 178 157 116 104 125 115 85 69 70 64 49 38 36
294 293 290 288 288 282 279 278 278 278 279 279 280 280 280 282 282 282 285 290 283 286 289 291 264 235 197 193 182 172 192 142 127 108 109 119 91 91 68 63 69 56 36 21
292 291 299 293 286 282 277 277 274 274 275 274 272 273 275 275 276 277 278 281 275 283 287 290 254 225 208 197 175 153 140 136 119 115 101 108 91 93 76 79 60 43 32 26
316 320 313 273 297 286 279 271 270 270 268 269 271 270 272 271 271 270 272 274 278 275 286 279 231 218 181 161 155 146 141 138 116 97 107 79 72 68 61 54 52 46 41 36
315 318 308 310 314 246 290 273 265 263 266 270 263 266 267 265 268 266 270 273 275 266 286 231 215 194 183 163 138 125 134 128 112 97 83 77 70 66 59 53 46 34 35 39
294 312 315 277 262 239 274 259 251 254 257 257 262 264 261 261 260 264 273 270 273 284 243 208 191 182 185 158 120 118 135 121 97 80 83 71 61 56 51 38 42 44 37 33
318 319 287 313 290 273 261 254 251 248 248 249 252 253 255 256 261 266 267 255 281 287 201 186 185 193 153 121 117 121 116 86 88 81 71 73 78 67 51 48 48 43 37 34
323 319 296 313 278 258 250 245 243 241 237 237 239 249 250 252 257 257 273 267 344 185 178 181 191 182 157 144 125 123 85 78 76 76 77 83 65 55 54 59 55 46 41 39
316 314 293 256 254 245 238 231 227 221 220 227 237 246 248 249 252 229 188 122 152 167 176 198 172 161 174 229 165 104 87 82 80 69 65 64 59 59 65 61 49 45 45 45
263 257 245 237 230 226 220 211 210 210 217 223 249 263 266 247 235 199 130 114 124 175 178 148 153 152 187 312 101 94 76 71 67 64 64 63 59 69 71 61 55 58 57 48
245 238 231 223 214 210 201 201 201 209 207 238 257 238 214 193 168 158 170 134 118 123 135 139 151 137 232 108 107 87 72 66 68 69 66 69 75 70 61 56 56 59 53 48
240 229 219 208 200 198 197 192 197 196 201 204 198 147 194 182 185 187 166 145 130 133 133 143 157 89 192 152 84 78 72 75 71 71 73 70 71 70 73 73 65 56 51 49
227 214 203 196 193 195 200 185 188 200 204 184 138 139 141 151 175 166 157 126 122 123 141 137 200 196 116 89 83 74 71 66 65 67 69 75 69 72 72 68 66 58 53 50